Location: Ay?beleni
(36.6500°N, 30.3000°E)
Time: 04:06:57
(UTC+00:00)

CZ-4 R/B - Pass Details

Date: 16 October 2021
Orbit: 530 x 596 km, 97.8° (Epoch: 08 December)

Event Time Altitude Azimuth Distance (km) Brightness Sun altitude
Exits shadow 16:25:11 - 150° (SSE) 2,517 4.4 -13.6°
Reaches altitude 10° 16:26:56 10° 144° (SE) 1,809 3.6 -14.0°
Maximum altitude 16:30:37 42° 73° (ENE) 803 1.7 -14.7°
Drops below altitude 10° 16:34:25 10° 3° (N) 1,858 4.0 -15.5°
Sets 16:36:39 0° 356° (N) 2,770 5.0 -15.9°
